VA3XLC Weather Reports


time (UTC)temp
C
wind
direction
speed
KPH
gust
KPH
rain 1hr
cm
rain 24hr
cm
rain mn
cm
humidity
%
barometer
mb
20260508185042 14 300 9.7 12.9 0.00 0.00 0.00 22 976.7
20260508184542 14 323 3.2 9.7 0.00 0.00 0.00 22 976.7
20260508184042 14 242 8.0 14.5 0.00 0.00 0.00 24 976.8
20260508183542 13 321 9.7 12.9 0.00 0.00 0.00 24 976.9
20260508182520 13 342 9.7 14.5 0.00 0.00 0.00 24 977.1
20260508182020 13 350 12.9 19.3 0.00 0.00 0.00 25 977.1
20260508181520 13 337 9.7 12.9 0.00 0.00 0.00 26 977.1
20260508181020 13 293 14.5 19.3 0.00 0.00 0.00 24 977.2
20260508180519 13 247 4.8 6.4 0.00 0.00 0.00 25 977.3
20260508180019 13 305 9.7 14.5 0.00 0.00 0.00 25 977.4
20260508175519 13 329 4.8 9.7 0.00 0.00 0.00 27 977.4
20260508175019 13 332 11.3 16.1 0.00 0.00 0.00 27 977.4
20260508174519 13 304 11.3 17.7 0.00 0.00 0.00 27 977.4
20260508174019 13 340 8.0 11.3 0.00 0.00 0.00 26 977.5
20260508173519 13 30 6.4 11.3 0.00 0.00 0.00 24 977.6
20260508173018 12 312 9.7 14.5 0.00 0.00 0.00 26 977.7
20260508172518 13 324 12.9 19.3 0.00 0.00 0.00 25 977.7
20260508172018 12 345 9.7 16.1 0.00 0.00 0.00 25 977.7
20260508171518 12 318 6.4 9.7 0.00 0.00 0.00 28 977.8
20260508171018 12 336 6.4 9.7 0.00 0.00 0.00 27 977.8
20260508170517 12 321 3.2 6.4 0.00 0.00 0.00 28 977.8
20260508170017 12 187 6.4 8.0 0.00 0.00 0.00 31 977.9
20260508165517 12 312 9.7 12.9 0.00 0.00 0.00 30 977.9
20260508165017 12 326 8.0 14.5 0.00 0.00 0.00 31 978.0
20260508164516 12 11 4.8 9.7 0.00 0.00 0.00 29 978.1
20260508164016 12 279 12.9 20.9 0.00 0.00 0.00 28 978.2
20260508163515 12 317 11.3 14.5 0.00 0.00 0.00 29 978.2
20260508163015 12 269 6.4 12.9 0.00 0.00 0.00 32 978.2
20260508162515 12 229 4.8 8.0 0.00 0.00 0.00 33 978.3
20260508162015 12 290 4.8 6.4 0.00 0.00 0.00 32 978.4
20260508161515 12 291 6.4 11.3 0.00 0.00 0.00 31 978.5
20260508161015 12 321 6.4 8.0 0.00 0.00 0.00 30 978.5
20260508160514 11 268 11.3 20.9 0.00 0.00 0.00 31 978.6
20260508160015 11 282 6.4 9.7 0.00 0.00 0.00 32 978.7
20260508155514 11 342 6.4 9.7 0.00 0.00 0.00 32 978.7
20260508155014 11 294 9.7 14.5 0.00 0.00 0.00 33 978.7
20260508154513 11 259 14.5 20.9 0.00 0.00 0.00 34 978.6
20260508153452 11 257 8.0 11.3 0.00 0.00 0.00 36 978.8
20260508152952 11 181 6.4 8.0 0.00 0.00 0.00 36 978.9
20260508152452 11 235 4.8 6.4 0.00 0.00 0.00 37 978.8
20260508151951 10 246 6.4 11.3 0.00 0.00 0.00 36 978.8
20260508151451 11 275 12.9 17.7 0.00 0.00 0.00 36 978.8
20260508150951 10 230 3.2 6.4 0.00 0.00 0.00 38 978.8
20260508150451 10 216 3.2 6.4 0.00 0.00 0.00 39 978.9
20260508145951 10 347 3.2 8.0 0.00 0.00 0.00 42 978.9
20260508145450 10 325 8.0 12.9 0.00 0.00 0.00 40 978.9
20260508144950 10 342 9.7 12.9 0.00 0.00 0.00 38 979.0
20260508144449 10 300 6.4 9.7 0.00 0.00 0.00 40 979.0
20260508143949 10 320 8.0 11.3 0.00 0.00 0.00 37 979.0
20260508143449 10 307 8.0 16.1 0.00 0.00 0.00 42 979.0
20260508142948 10 14 4.8 8.0 0.00 0.00 0.00 44 979.2
20260508142448 9 261 3.2 8.0 0.00 0.00 0.00 46 979.1
20260508141426 9 349 8.0 12.9 0.00 0.00 0.00 48 979.1
20260508140925 9 341 4.8 8.0 0.00 0.00 0.00 48 979.2
20260508140425 9 338 4.8 9.7 0.00 0.00 0.00 43 979.1
20260508135924 9 337 8.0 11.3 0.00 0.00 0.00 49 979.2
20260508135424 8 346 6.4 8.0 0.00 0.00 0.00 52 979.3
20260508134923 9 295 4.8 8.0 0.00 0.00 0.00 54 979.2
20260508134423 8 237 4.8 6.4 0.00 0.00 0.00 55 979.2
20260508133922 8 343 8.0 11.3 0.00 0.00 0.00 58 979.2
20260508132901 8 335 6.4 8.0 0.00 0.00 0.00 58 979.2
20260508132401 8 284 6.4 9.7 0.00 0.00 0.00 58 979.2
20260508131901 8 334 4.8 9.7 0.00 0.00 0.00 61 979.2
20260508131400 8 291 6.4 8.0 0.00 0.00 0.00 60 979.1
20260508130859 8 343 4.8 8.0 0.00 0.00 0.00 60 979.1
20260508130359 7 342 6.4 11.3 0.00 0.00 0.00 60 979.1
20260508125859 7 301 4.8 9.7 0.00 0.00 0.00 61 979.1
20260508125359 7 41 4.8 12.9 0.00 0.00 0.00 61 979.0
20260508124858 7 284 8.0 11.3 0.00 0.00 0.00 64 979.0
20260508124358 7 335 9.7 11.3 0.00 0.00 0.00 63 979.0
20260508123858 7 328 8.0 11.3 0.00 0.00 0.00 65 979.0
20260508123357 7 317 4.8 8.0 0.00 0.00 0.00 65 979.1
20260508122857 7 256 6.4 9.7 0.00 0.00 0.00 66 979.1
20260508122357 7 286 6.4 9.7 0.00 0.00 0.00 66 979.1
20260508121857 7 278 6.4 8.0 0.00 0.00 0.00 67 979.0
20260508121356 7 263 6.4 8.0 0.00 0.00 0.00 68 979.0
20260508120856 6 262 8.0 9.7 0.00 0.00 0.00 68 979.0
20260508120355 6 246 4.8 8.0 0.00 0.00 0.00 68 978.9
20260508115855 6 245 6.4 8.0 0.00 0.00 0.00 68 978.9
20260508115354 6 255 4.8 6.4 0.00 0.00 0.00 69 978.9
20260508114854 6 249 6.4 8.0 0.00 0.00 0.00 70 978.9
20260508113832 6 255 4.8 6.4 0.00 0.00 0.00 70 978.8
20260508112810 5 272 6.4 8.0 0.00 0.00 0.00 71 978.8
20260508112310 5 247 4.8 8.0 0.00 0.00 0.00 73 978.8
20260508111810 4 256 4.8 4.8 0.00 0.00 0.00 76 978.8
20260508110748 3 252 3.2 4.8 0.00 0.00 0.00 79 978.8
20260508110248 3 201 4.8 4.8 0.00 0.00 0.00 81 978.8
20260508105748 3 214 1.6 3.2 0.00 0.00 0.00 83 978.8
20260508105247 2 213 3.2 3.2 0.00 0.00 0.00 83 978.9
20260508104747 2 207 3.2 3.2 0.00 0.00 0.00 84 978.8
20260508104247 2 0 0.0 0.0 0.00 0.00 0.00 83 978.8
20260508103747 2 0 0.0 0.0 0.00 0.00 0.00 83 978.8
20260508103246 3 0 0.0 0.0 0.00 0.00 0.00 82 978.8
20260508102746 3 0 0.0 0.0 0.00 0.00 0.00 82 978.8
20260508102246 3 199 3.2 3.2 0.00 0.00 0.00 82 978.8
20260508101746 3 212 3.2 3.2 0.00 0.00 0.00 81 978.7
20260508100724 3 241 1.6 1.6 0.00 0.00 0.00 81 978.7
20260508100224 3 0 0.0 0.0 0.00 0.00 0.00 79 978.7
20260508095724 4 218 3.2 3.2 0.00 0.00 0.00 78 978.6
20260508095224 4 243 1.6 3.2 0.00 0.00 0.00 78 978.7
20260508094723 4 249 3.2 3.2 0.00 0.00 0.00 79 978.6
20260508094223 4 271 1.6 3.2 0.00 0.00 0.00 79 978.5
20260508093722 4 235 1.6 3.2 0.00 0.00 0.00 78 978.5
20260508093222 4 219 1.6 3.2 0.00 0.00 0.00 78 978.5
20260508092201 5 205 3.2 4.8 0.00 0.00 0.00 78 978.6
20260508091140 5 211 3.2 3.2 0.00 0.00 0.00 77 978.7
20260508090639 5 0 0.0 0.0 0.00 0.00 0.00 77 978.8
20260508090139 5 0 0.0 0.0 0.00 0.00 0.00 77 978.6
20260508085639 5 215 3.2 3.2 0.00 0.00 0.00 76 978.5
20260508085139 5 203 3.2 3.2 0.00 0.00 0.00 76 978.6
20260508084639 5 0 0.0 0.0 0.00 0.00 0.00 76 978.6
20260508084139 5 0 0.0 0.0 0.00 0.00 0.00 76 978.7
20260508083638 5 0 0.0 0.0 0.00 0.00 0.00 75 978.6
20260508082617 5 195 1.6 3.2 0.00 0.00 0.00 75 978.4
20260508082117 5 204 3.2 4.8 0.00 0.00 0.00 74 978.6
20260508081056 5 0 0.0 0.0 0.00 0.00 0.00 75 978.7
20260508080556 5 0 0.0 0.0 0.00 0.00 0.00 75 978.7
20260508080055 5 170 1.6 4.8 0.00 0.00 0.00 74 978.7
20260508075555 5 0 0.0 0.0 0.00 0.00 0.00 75 978.7
20260508075055 5 180 0.0 1.6 0.00 0.00 0.00 75 978.8
20260508074034 5 0 0.0 0.0 0.00 0.00 0.00 75 978.8
20260508073534 5 236 3.2 3.2 0.00 0.00 0.00 75 978.8
20260508073034 5 0 0.0 0.0 0.00 0.00 0.00 75 978.7
20260508072533 5 0 0.0 0.0 0.00 0.00 0.00 74 978.7
20260508072033 5 315 1.6 3.2 0.00 0.00 0.00 74 978.8
20260508071533 5 0 0.0 0.0 0.00 0.00 0.00 74 978.6
20260508070512 5 213 1.6 1.6 0.00 0.00 0.00 73 978.9
20260508070012 5 330 3.2 3.2 0.00 0.00 0.00 73 979.0
20260508065511 5 333 1.6 3.2 0.00 0.00 0.00 73 979.0
20260508065010 5 351 1.6 4.8 0.00 0.00 0.00 73 978.9
20260508064510 5 0 0.0 0.0 0.00 0.00 0.00 72 978.8
20260508064010 5 9 3.2 4.8 0.00 0.00 0.00 73 978.9
20260508062949 5 1 1.6 3.2 0.00 0.00 0.00 73 979.0
20260508062449 5 8 3.2 4.8 0.00 0.00 0.00 73 979.0
20260508061948 5 14 1.6 3.2 0.00 0.00 0.00 73 979.0
20260508061447 5 0 1.6 4.8 0.00 0.00 0.00 72 979.0
20260508060947 5 0 0.0 0.0 0.00 0.00 0.00 71 979.1
20260508060446 5 0 0.0 0.0 0.00 0.00 0.00 70 979.2
20260508055946 5 0 0.0 0.0 0.00 0.00 0.00 70 979.2
20260508055446 5 0 0.0 0.0 0.00 0.00 0.00 69 979.2
20260508054946 5 209 3.2 3.2 0.00 0.00 0.00 69 979.2
20260508054446 5 174 1.6 3.2 0.00 0.00 0.00 68 979.3
20260508053946 5 336 1.6 3.2 0.00 0.00 0.00 70 979.4
20260508052925 5 71 1.6 3.2 0.00 0.00 0.00 67 979.5
20260508052425 5 178 1.6 3.2 0.00 0.00 0.00 70 979.6
20260508051403 5 284 3.2 3.2 0.00 0.00 0.00 69 979.6
20260508050903 5 0 0.0 0.0 0.00 0.00 0.00 70 979.6
20260508050403 5 249 0.0 1.6 0.00 0.00 0.00 71 979.5
20260508045903 5 229 3.2 3.2 0.00 0.00 0.00 70 979.5
20260508044842 5 252 1.6 3.2 0.00 0.00 0.00 71 979.4
20260508044341 5 230 1.6 3.2 0.00 0.00 0.00 70 979.4
20260508043841 5 0 0.0 0.0 0.00 0.00 0.00 70 979.4
20260508043341 5 200 3.2 4.8 0.00 0.00 0.00 70 979.3
20260508042841 5 183 3.2 4.8 0.00 0.00 0.00 69 979.4
20260508042341 5 198 3.2 3.2 0.00 0.00 0.00 70 979.4
20260508041841 5 173 1.6 3.2 0.00 0.00 0.00 71 979.4
20260508041340 5 184 4.8 6.4 0.00 0.00 0.00 73 979.5
20260508040839 5 245 3.2 4.8 0.00 0.00 0.00 73 979.5
20260508040339 5 133 1.6 3.2 0.00 0.00 0.00 72 979.4
20260508035839 5 216 3.2 3.2 0.00 0.00 0.00 73 979.4
20260508034817 4 0 0.0 0.0 0.00 0.00 0.00 72 979.3
20260508034317 4 233 1.6 3.2 0.00 0.00 0.00 72 979.3
20260508033817 4 0 0.0 0.0 0.00 0.00 0.00 72 979.2
20260508033316 4 201 3.2 3.2 0.00 0.00 0.00 73 979.3
20260508032816 4 293 1.6 3.2 0.00 0.00 0.00 73 979.3
20260508032316 4 0 0.0 0.0 0.00 0.00 0.00 74 979.2
20260508031815 4 238 3.2 3.2 0.00 0.00 0.00 73 979.1
20260508031315 3 188 4.8 4.8 0.00 0.00 0.00 73 979.2
20260508030815 3 0 0.0 0.0 0.00 0.00 0.00 72 979.2
20260508030315 4 0 0.0 0.0 0.00 0.00 0.00 72 979.2
20260508025814 4 0 0.0 0.0 0.00 0.00 0.00 72 979.2
20260508025314 4 192 3.2 3.2 0.00 0.00 0.00 71 979.4
20260508024812 4 247 3.2 3.2 0.00 0.00 0.00 72 979.4
20260508024312 4 0 0.0 0.0 0.00 0.00 0.00 72 979.4
20260508023812 4 275 1.6 3.2 0.00 0.00 0.00 71 979.4
20260508023312 4 0 0.0 0.0 0.00 0.00 0.00 72 979.3
20260508022251 4 0 0.0 0.0 0.00 0.00 0.00 72 979.2
20260508021750 4 251 1.6 1.6 0.00 0.00 0.00 72 979.2
20260508021249 4 0 0.0 0.0 0.00 0.00 0.00 73 979.2
20260508020749 3 0 0.0 0.0 0.00 0.00 0.00 73 979.1
20260508020249 4 0 0.0 0.0 0.00 0.00 0.00 72 979.1
20260508014707 4 272 1.6 1.6 0.00 0.00 0.00 72 979.1
20260508014207 4 0 0.0 0.0 0.00 0.00 0.00 71 979.0
20260508013707 5 0 0.0 0.0 0.00 0.00 0.00 69 979.0
20260508013206 5 0 0.0 0.0 0.00 0.00 0.00 69 979.1
20260508012145 5 0 0.0 0.0 0.00 0.00 0.00 67 979.0
20260508011645 6 0 0.0 0.0 0.00 0.00 0.00 66 978.9
20260508011144 6 0 0.0 0.0 0.00 0.00 0.00 65 978.9
20260508010644 6 0 0.0 0.0 0.00 0.00 0.00 64 978.8
20260508010143 6 0 0.0 0.0 0.00 0.00 0.00 62 978.7
20260508005643 6 0 0.0 0.0 0.00 0.00 0.00 61 978.6
20260508005141 7 230 1.6 3.2 0.00 0.00 0.00 60 978.7
20260508004641 7 338 3.2 4.8 0.00 0.00 0.00 59 978.8
20260508004141 7 348 4.8 6.4 0.00 0.00 0.00 58 978.7
20260508003641 7 307 3.2 4.8 0.00 0.00 0.00 58 978.7
20260508003141 7 354 1.6 8.0 0.00 0.00 0.00 57 978.5
20260508002641 7 344 4.8 6.4 0.00 0.00 0.00 56 978.5
20260508002140 8 250 1.6 3.2 0.00 0.00 0.00 56 978.4
20260508001640 8 332 3.2 4.8 0.00 0.00 0.00 55 978.3
20260508001140 8 333 4.8 8.0 0.00 0.00 0.00 54 978.3
20260508000118 8 346 4.8 8.0 0.00 0.00 0.00 52 978.1
20260507235618 8 334 4.8 8.0 0.00 0.00 0.00 52 978.1
20260507235118 8 348 6.4 9.7 0.00 0.00 0.00 51 978.1
20260507234617 9 343 8.0 9.7 0.00 0.00 0.00 51 978.2
20260507234116 9 349 8.0 12.9 0.00 0.00 0.00 50 978.1
20260507233616 9 340 8.0 11.3 0.00 0.00 0.00 50 978.2
20260507233115 9 342 6.4 8.0 0.00 0.00 0.00 50 978.2
20260507232615 9 322 9.7 14.5 0.00 0.00 0.00 49 978.1
20260507232115 10 356 6.4 11.3 0.00 0.00 0.00 49 978.0
20260507231615 10 332 6.4 11.3 0.00 0.00 0.00 48 978.1
20260507231115 10 9 3.2 6.4 0.00 0.00 0.00 49 978.1
20260507230614 9 316 9.7 12.9 0.00 0.00 0.00 49 978.0
20260507225553 9 352 9.7 14.5 0.00 0.00 0.00 49 978.1
20260507224532 9 317 4.8 6.4 0.00 0.00 0.00 51 978.1
20260507224031 9 338 9.7 12.9 0.00 0.00 0.00 52 978.1
20260507223531 9 322 4.8 6.4 0.00 0.00 0.00 54 978.2
20260507223031 9 308 4.8 6.4 0.00 0.00 0.00 53 978.3
20260507222009 10 328 9.7 12.9 0.00 0.00 0.00 50 978.2
20260507221509 9 350 6.4 9.7 0.00 0.00 0.00 52 978.2
20260507220447 8 338 6.4 11.3 0.00 0.00 0.00 55 978.3
20260507215947 8 303 6.4 9.7 0.00 0.00 0.00 55 978.3
20260507214926 8 322 8.0 12.9 0.00 0.00 0.00 57 978.4
20260507214425 8 328 9.7 12.9 0.00 0.00 0.00 58 978.4
20260507213924 8 342 6.4 11.3 0.00 0.00 0.00 57 978.3
20260507212902 8 0 6.4 12.9 0.00 0.00 0.00 57 978.2
20260507212402 8 21 8.0 11.3 0.00 0.00 0.00 56 978.2
20260507210259 8 354 9.7 14.5 0.00 0.00 0.00 55 978.1
20260507205758 8 340 9.7 12.9 0.00 0.00 0.00 55 978.0
20260507205257 8 348 11.3 14.5 0.00 0.00 0.00 55 978.0
20260507204757 8 8 6.4 14.5 0.00 0.00 0.00 57 977.9
20260507204257 8 19 4.8 6.4 0.00 0.00 0.00 56 977.9
20260507203757 8 315 4.8 6.4 0.00 0.00 0.00 57 977.9
20260507203257 8 347 3.2 6.4 0.00 0.00 0.00 56 977.9
20260507202757 8 319 6.4 9.7 0.00 0.00 0.00 55 977.9
20260507202256 8 341 6.4 11.3 0.00 0.00 0.00 57 977.9
20260507201756 8 300 6.4 11.3 0.00 0.00 0.00 58 977.9
20260507201256 8 342 8.0 12.9 0.00 0.00 0.00 56 977.9
20260507195713 9 302 8.0 11.3 0.00 0.00 0.00 56 977.8
20260507195213 10 346 9.7 19.3 0.00 0.00 0.00 47 977.9
20260507194151 10 344 6.4 11.3 0.00 0.00 0.00 45 977.8
20260507193651 10 287 3.2 8.0 0.00 0.00 0.00 44 977.7
20260507193151 10 300 9.7 16.1 0.00 0.00 0.00 44 977.7
20260507192651 10 323 6.4 8.0 0.00 0.00 0.00 43 977.7
20260507192150 10 321 4.8 8.0 0.00 0.00 0.00 43 977.8
20260507191129 10 333 6.4 9.7 0.00 0.00 0.00 43 977.9
20260507190629 10 319 6.4 11.3 0.00 0.00 0.00 42 977.9
20260507190129 10 301 4.8 12.9 0.00 0.00 0.00 43 977.9
20260507185628 10 256 11.3 14.5 0.00 0.00 0.00 42 977.9